Frederick, MD

4:59 PM EDT on May 23, 2018 (GMT -0400)
Frederick Municipal

Weather History for KFDK - November, 2012

Change the Weather History Date:

Tuesday, November 27, 2012

  Actual Average (KHGR) Record (KHGR)
Temperature  
Mean Temperature 36 °F -  
Max Temperature 39 °F 47 °F 67 °F (2015)
Min Temperature 32 °F 33 °F 23 °F (1996)
Degree Days  
Heating Degree Days 30    
Moisture  
Dew Point 34 °F    
Average Humidity 95    
Maximum Humidity 100    
Minimum Humidity 87    
Precipitation  
Precipitation 0.10 in - - ()
Sea Level Pressure  
Sea Level Pressure 30.25 in    
Wind  
Wind Speed 3 mph (NNE)    
Max Wind Speed 12 mph    
Max Gust Speed -    
Visibility 6 miles    
Events Rain    
Averages and records for this station are not official NWS values.
T = Trace of Precipitation, MM = Missing Value Source: NWS Daily Summary

Daily Weather History Graph

Daily Weather History Graph

Search for Another Location

Airport or City:

Astronomy

Nov. 27, 2012 Rise Set
Actual Time 7:06 AM EST 4:47 PM EST
Civil Twilight 6:37 AM EST 5:16 PM EST
Nautical Twilight 6:04 AM EST 5:50 PM EST
Astronomical Twilight 5:32 AM EST 6:22 PM EST
Moon 4:17 PM EST (11/27) 6:10 AM EST (11/27)
Length of Visible Light 10h 39m
Length of Day
9h 40m
Waxing Gibbous, 99% of the Moon is Illuminated
Nov 27
Waxing Gibbous
Nov 28
Full
Dec 6
Last Quarter
Dec 13
New
Dec 20
First Quarter

Hourly Weather History & Observations

Time (EST) Temp. Windchill Dew Point Humidity Pressure Visibility Wind Dir Wind Speed Gust Speed Precip Events Conditions
12:20 AM 33.8 °F - 32.0 °F 93% 30.24 in 10.0 mi Calm Calm - N/A   Overcast
12:40 AM 33.8 °F - 32.0 °F 93% 30.23 in 10.0 mi Calm Calm - N/A   Overcast
1:00 AM 35.6 °F - 32.0 °F 87% 30.23 in 10.0 mi Calm Calm - N/A   Overcast
1:20 AM 35.6 °F 32.8 °F 32.0 °F 87% 30.23 in 10.0 mi North 3.5 mph - N/A   Overcast
1:45 AM 35.6 °F 32.8 °F 32.0 °F 87% 30.23 in 10.0 mi NNE 3.5 mph - N/A   Overcast
2:05 AM 35.6 °F - 32.0 °F 87% 30.22 in 10.0 mi Calm Calm - N/A   Overcast
2:25 AM 35.6 °F 31.7 °F 32.0 °F 87% 30.23 in 10.0 mi North 4.6 mph - N/A   Overcast
2:45 AM 35.6 °F 32.8 °F 32.0 °F 87% 30.23 in 7.0 mi NNE 3.5 mph - N/A Rain Light Rain
3:10 AM 35.6 °F 31.7 °F 32.0 °F 87% 30.23 in 7.0 mi NNE 4.6 mph - N/A Rain Light Rain
3:30 AM 35.6 °F 31.7 °F 32.0 °F 87% 30.21 in 10.0 mi North 4.6 mph - N/A Rain Light Rain
3:50 AM 35.6 °F 31.7 °F 32.0 °F 87% 30.23 in 10.0 mi North 4.6 mph - N/A Rain Light Rain
4:10 AM 35.6 °F - 32.0 °F 87% 30.23 in 7.0 mi Calm Calm - N/A Rain Light Rain
4:35 AM 35.6 °F 32.8 °F 32.0 °F 87% 30.24 in 5.0 mi North 3.5 mph - N/A Rain Light Rain
4:55 AM 35.6 °F 29.9 °F 32.0 °F 87% 30.23 in 4.0 mi North 6.9 mph - 0.03 in Rain Rain
5:15 AM 35.6 °F 31.7 °F 33.8 °F 93% 30.23 in 5.0 mi NNE 4.6 mph - 0.02 in Rain Rain
5:35 AM 35.6 °F 31.7 °F 33.8 °F 93% 30.23 in 4.0 mi NNE 4.6 mph - 0.05 in Rain Rain
5:50 AM 35.6 °F 31.7 °F 33.8 °F 93% 30.22 in 3.0 mi NNE 4.6 mph - 0.07 in Rain Light Rain
6:52 AM 35.6 °F 29.2 °F 35.6 °F 100% 30.22 in 2.0 mi NNE 8.1 mph - N/A Rain Light Rain
7:46 AM 35.6 °F 29.9 °F 35.6 °F 100% 30.23 in 2.0 mi North 6.9 mph - N/A Rain Rain
8:46 AM 35.6 °F 29.9 °F 35.6 °F 100% 30.24 in 2.0 mi North 6.9 mph - N/A Rain Rain
9:50 AM 35.6 °F 27.5 °F 35.6 °F 100% 30.26 in 3.0 mi NNE 11.5 mph - N/A Rain Light Rain
10:51 AM 35.6 °F 27.5 °F 35.6 °F 100% 30.26 in 2.5 mi NNE 11.5 mph - N/A Rain Light Rain
11:45 AM 35.6 °F 29.2 °F 35.6 °F 100% 30.25 in 3.0 mi North 8.1 mph - N/A Rain Light Rain
12:50 PM 37.4 °F 30.3 °F 37.4 °F 100% 30.23 in 5.0 mi NNE 10.4 mph - N/A   Overcast
1:50 PM 39.2 °F 34.2 °F 39.2 °F 100% 30.23 in 5.0 mi NNE 6.9 mph - N/A   Overcast
2:45 PM 39.2 °F 33.0 °F 37.4 °F 93% 30.23 in 5.0 mi NE 9.2 mph - N/A   Mostly Cloudy
3:50 PM 39.2 °F 35.0 °F 37.4 °F 93% 30.24 in 7.0 mi NNE 5.8 mph - N/A   Overcast
4:50 PM 37.4 °F 32.8 °F 37.4 °F 100% 30.25 in 7.0 mi NE 5.8 mph - N/A   Overcast
5:50 PM 35.6 °F 31.7 °F 33.8 °F 93% 30.26 in 10.0 mi North 4.6 mph - N/A   Clear
6:50 PM 32.0 °F - 32.0 °F 100% 30.26 in 7.0 mi Calm Calm - N/A   Scattered Clouds
7:55 PM 33.8 °F 30.8 °F 33.8 °F 100% 30.29 in 7.0 mi NNE 3.5 mph - N/A   Mostly Cloudy
8:30 PM 33.8 °F 30.8 °F 33.8 °F 100% 30.29 in 7.0 mi NNW 3.5 mph - N/A   Overcast
8:50 PM 33.8 °F - 33.8 °F 100% 30.29 in 7.0 mi Calm Calm - N/A   Overcast
9:10 PM 33.8 °F - 33.8 °F 100% 30.29 in 7.0 mi Calm Calm - N/A   Overcast
9:35 PM 33.8 °F 30.8 °F 33.8 °F 100% 30.29 in 7.0 mi NE 3.5 mph - N/A   Overcast
9:55 PM 33.8 °F - 33.8 °F 100% 30.30 in 7.0 mi Calm Calm - N/A   Overcast
10:15 PM 33.8 °F - 33.8 °F 100% 30.29 in 7.0 mi Calm Calm - N/A   Overcast
10:35 PM 33.8 °F - 33.8 °F 100% 30.29 in 7.0 mi Calm Calm - N/A   Overcast
11:00 PM 33.8 °F - 33.8 °F 100% 30.28 in 4.0 mi Calm Calm - N/A   Overcast
11:20 PM 33.8 °F 30.8 °F 33.8 °F 100% 30.28 in 5.0 mi NW 3.5 mph - N/A   Overcast
11:40 PM 33.8 °F - 33.8 °F 100% 30.28 in 7.0 mi Calm Calm - N/A   Overcast